[[{"header":{"parameterUnit":"m.s-1","parameterCategory":1,"la1":30.2991,"la2":30.254,"lo1":-89.0895,"lo2":-89.0444,"dy":0.0017,"dx":0.0017,"nx":28,"ny":28,"refTime":"2024-07-17T21:00:00:Z","depth":0,"parameterNumber":2,"parameterNumberName":"U-component_of_WINDS"},"data":[0,0,0,0,0,0,0,0,0,0,0,0,0,0,0,0,0,0,0,0,0,0,0,0,0,0,0,0,0,0,0,0,0,0,0,0,0,0,0,0,0,0,0,0,0,0,0,0,0,0,0,0,0,0,0,0,0,0,0.8695,0.8696,0,0.8782,0.8783,0.8784,0.8823,0.8823,0.8823,0.8823,0.8914,0.8917,0.8919,0,0,0,0,0,0,0,0,0,0,0,0,0,0.8564,0.8566,0.8695,0.8696,0.8697,0.8782,0.8783,0.8784,0.8823,0.8823,0.8823,0.8823,0.8913,0.8916,0.8919,0,0,0,0,0,0,0,0,0,0,0,0,0,0.8633,0.8567,0.8695,0.8727,0.873,0.8782,0.8783,0.8785,0.8823,0.8823,0.8823,0.8823,0.8912,0.8916,0.892,0.8947,0,0,0.8931,0.8933,0,0,0,0,0,0,0,0,0.8629,0.8638,0.8721,0.8725,0.8729,0.8792,0.8771,0.8839,0.8823,0.8788,0.8823,0.8823,0.8874,0.8881,0.8897,0.8951,0.8955,0.8932,0.8934,0.8936,0.8937,0,0,0,0,0,0,0,0.8624,0.8634,0.873,0.8722,0.8727,0.8737,0.8747,0.8784,0.8831,0.8791,0.8794,0.8804,0.8876,0.8894,0.89,0.8956,0.8932,0.8935,0.8937,0.8939,0.9037,0.9037,0,0,0,0,0,0,0.8614,0.863,0.8727,0.8732,0.8678,0.874,0.8751,0.8772,0.8831,0.8839,0.8804,0.8805,0.8887,0.8895,0.8903,0.8939,0.8936,0.8939,0.8941,0.9037,0.9037,0.9037,0,0,0,0,0,0,0.8611,0.8622,0.8723,0.8682,0.8696,0.8742,0.8766,0.8774,0.8791,0.884,0.8849,0.8813,0.8887,0.8898,0.8936,0.8943,0.8941,0.8944,0.9036,0.9037,0.9037,0.901,0,0,0,0,0,0,0.8607,0.8621,0.8631,0.8682,0.8698,0.8753,0.8766,0.8775,0.8798,0.88,0.8851,0.886,0.8888,0.893,0.8939,0.8948,0.8947,0.9036,0.9036,0.9037,0.9011,0.901,0.9009,0,0,0,0,0,0.8602,0.862,0.8631,0.8643,0.8711,0.8754,0.8763,0.8795,0.8798,0.8809,0.884,0.8858,0.894,0.8933,0.8944,0.8954,0.9036,0.9036,0.9037,0.9011,0.901,0.9009,0,0,0,0,0,0,0.8569,0.8627,0.864,0.8675,0.8709,0.876,0.8775,0.8792,0.8826,0.8828,0.8866,0.8878,0.8912,0.8937,0.8928,0.8984,0.899,0.8993,0.8966,0.8965,0.8964,0.8958,0.8951,0,0,0,0,0,0.8566,0.8595,0.8645,0.867,0.8687,0.8728,0.8747,0.8769,0.8806,0.8821,0.8855,0.8891,0.8925,0.8947,0.898,0.9014,0.9027,0.9027,0.9026,0.9025,0.9027,0.9048,0.9049,0.904,0.904,0.904,0,0,0.856,0.8595,0.8611,0.8665,0.8693,0.8723,0.8739,0.877,0.8793,0.8826,0.8863,0.889,0.8932,0.8968,0.8986,0.899,0.9032,0.9026,0.9025,0.9028,0.9049,0.9049,0.905,0.904,0.904,0.904,0,0,0.8563,0.8593,0.8618,0.8646,0.8689,0.8717,0.8723,0.8771,0.879,0.8828,0.8853,0.8882,0.8939,0.8969,0.8991,0.9007,0.9024,0.9017,0.9012,0.9032,0.9032,0.9033,0.9039,0.9041,0.9019,0.9019,0.9019,0,0.855,0.8595,0.8628,0.8658,0.8681,0.8711,0.8737,0.8764,0.8816,0.8832,0.8836,0.8909,0.894,0.8984,0.8988,0.9005,0.9013,0.9011,0.9029,0.9031,0.9032,0.9038,0.904,0.9017,0.9018,0.9018,0.9018,0,0.8577,0.8608,0.8623,0.8672,0.8697,0.8725,0.8763,0.8784,0.8804,0.8831,0.887,0.8908,0.8951,0.8963,0.8983,0.901,0.9011,0.9022,0.9028,0.9031,0.9037,0.904,0.9016,0.9016,0.9017,0.9017,0,0,0.8562,0.8629,0.8634,0.8657,0.8707,0.8733,0.8762,0.8803,0.8821,0.8856,0.8882,0.8931,0.8941,0.8967,0.899,0.9007,0.9018,0.9016,0.9018,0.9015,0.9051,0.9042,0.9044,0.903,0.903,0.9031,0.9047,0,0.8572,0.8625,0.8656,0.8697,0.8727,0.8756,0.8782,0.8816,0.8843,0.8872,0.8902,0.8935,0.8946,0.8962,0.898,0.9012,0.9025,0.9012,0.9055,0.9056,0.9043,0.9048,0.9039,0.9052,0.905,0.905,0.9051,0,0.8592,0.8626,0.8669,0.8717,0.873,0.8753,0.8793,0.8821,0.8861,0.8879,0.8907,0.8931,0.8964,0.8968,0.9015,0.9005,0.9025,0.9043,0.9045,0.905,0.9053,0.9053,0.9057,0.9059,0.9055,0.9055,0.9054,0,0.8577,0.8634,0.8667,0.8686,0.8742,0.8757,0.8781,0.8821,0.8844,0.8879,0.8895,0.8934,0.8956,0.8986,0.902,0.902,0.9064,0.907,0.908,0.9079,0.9088,0.9087,0.9095,0.91,0.91,0.91,0.91,0,0.8585,0.8611,0.8661,0.8682,0.8711,0.8747,0.8776,0.8803,0.8838,0.8865,0.8893,0.8918,0.8961,0.8992,0.9019,0.9054,0.9063,0.908,0.9086,0.9077,0.9075,0.909,0.909,0.9101,0.9101,0.9101,0.9101,0,0.8573,0.8608,0.8646,0.8696,0.871,0.8729,0.8773,0.8794,0.8822,0.8856,0.8866,0.891,0.8948,0.8984,0.9035,0.9053,0.9088,0.9097,0.9074,0.9078,0.9086,0.9085,0.9105,0.9109,0.9111,0.9111,0.9111,0,0.8576,0.8597,0.8649,0.8668,0.8692,0.8723,0.8747,0.8783,0.8807,0.8854,0.887,0.8909,0.8943,0.9002,0.9039,0.9078,0.9088,0.9093,0.9094,0.9084,0.9089,0.9087,0.909,0.9091,0.9091,0.9091,0.9091,0,0.8579,0.8595,0.8627,0.8665,0.8692,0.8724,0.8758,0.8772,0.8815,0.884,0.8879,0.8905,0.8956,0.8995,0.9039,0.9065,0.9086,0.909,0.9095,0.9085,0.9071,0.9079,0.9072,0.909,0.909,0.909,0.909,0.909,0.8575,0.8594,0.8634,0.8669,0.8698,0.8728,0.8751,0.8781,0.8814,0.8858,0.8878,0.8917,0.8957,0.9017,0.9043,0.9075,0.908,0.9086,0.9088,0.9089,0.9087,0.9066,0.9083,0.9083,0.9083,0.9083,0.9083,0,0.8579,0.8605,0.8637,0.8683,0.871,0.8726,0.8764,0.8787,0.882,0.8855,0.8888,0.8932,0.8971,0.9011,0.9052,0.9069,0.908,0.9079,0.9078,0.9084,0.908,0.9072,0.907,0.907,0.907,0.907,0.907,0.907,0.8584,0.8618,0.8639,0.8687,0.8715,0.8752,0.8772,0.8801,0.8829,0.8877,0.8909,0.8935,0.8973,0.9016,0.9053,0.9064,0.9078,0.9074,0.9088,0.9083,0.9084,0.9085,0.9078,0.9077,0.9077,0.9089,0.9089,0.9089]},{"header":{"parameterUnit":"m.s-1","parameterCategory":1,"la1":30.2991,"la2":30.254,"lo1":-89.0895,"lo2":-89.0444,"dy":0.0017,"dx":0.0017,"nx":28,"ny":28,"refTime":"2024-07-17T21:00:00:Z","depth":0,"parameterNumber":3,"parameterNumberName":"V-component_of_WINDS"},"data":[0,0,0,0,0,0,0,0,0,0,0,0,0,0,0,0,0,0,0,0,0,0,0,0,0,0,0,0,0,0,0,0,0,0,0,0,0,0,0,0,0,0,0,0,0,0,0,0,0,0,0,0,0,0,0,0,0,0,0.356,0.3561,0,0.3605,0.3605,0.3606,0.361,0.3609,0.3609,0.3608,0.3658,0.366,0.3662,0,0,0,0,0,0,0,0,0,0,0,0,0,0.3482,0.3483,0.356,0.3561,0.3561,0.3605,0.3605,0.3606,0.361,0.3609,0.3608,0.3608,0.3658,0.366,0.3662,0,0,0,0,0,0,0,0,0,0,0,0,0,0.352,0.3484,0.356,0.3568,0.3569,0.3605,0.3605,0.3606,0.361,0.3609,0.3608,0.3608,0.3657,0.366,0.3662,0.3694,0,0,0.3671,0.3672,0,0,0,0,0,0,0,0,0.3518,0.3523,0.3566,0.3568,0.3569,0.3601,0.3596,0.3636,0.361,0.3595,0.3608,0.3607,0.364,0.3644,0.3654,0.3697,0.3699,0.3671,0.3673,0.3674,0.3675,0,0,0,0,0,0,0,0.3515,0.3521,0.3578,0.3567,0.3569,0.3571,0.3575,0.3604,0.3621,0.3596,0.3596,0.3601,0.3641,0.3652,0.3656,0.3699,0.3671,0.3673,0.3675,0.3676,0.377,0.3771,0,0,0,0,0,0,0.351,0.3519,0.3577,0.3579,0.3541,0.3573,0.3578,0.3591,0.3621,0.3624,0.3602,0.3601,0.3648,0.3652,0.3657,0.3697,0.3674,0.3676,0.3678,0.3769,0.377,0.3771,0,0,0,0,0,0,0.3509,0.3516,0.3575,0.3549,0.3557,0.3575,0.359,0.3593,0.3604,0.3625,0.3629,0.361,0.3647,0.3654,0.3685,0.3699,0.3678,0.368,0.3768,0.377,0.3771,0.3776,0,0,0,0,0,0,0.3506,0.3515,0.3526,0.3549,0.3558,0.36,0.3591,0.3594,0.3608,0.3607,0.3634,0.3637,0.3647,0.3681,0.3687,0.3702,0.3682,0.3767,0.3769,0.377,0.3774,0.3777,0.3779,0,0,0,0,0,0.3504,0.3527,0.3527,0.3534,0.3572,0.3601,0.3606,0.3616,0.3609,0.3621,0.3635,0.3636,0.3696,0.3684,0.3691,0.3707,0.3766,0.3768,0.377,0.3773,0.3776,0.3779,0,0,0,0,0,0,0.3507,0.353,0.353,0.3561,0.3579,0.3601,0.3617,0.3619,0.364,0.3639,0.3651,0.3657,0.3688,0.3701,0.3687,0.3739,0.3731,0.3734,0.373,0.3733,0.3736,0.3732,0.3684,0,0,0,0,0,0.351,0.353,0.355,0.3576,0.3584,0.3599,0.3612,0.3617,0.3637,0.3645,0.3661,0.3681,0.3704,0.3719,0.3742,0.3776,0.3782,0.379,0.3793,0.3794,0.3798,0.3817,0.3821,0.3778,0.3778,0.3778,0,0,0.352,0.3535,0.3547,0.3577,0.3591,0.3612,0.3605,0.3628,0.3645,0.3649,0.3679,0.3691,0.3715,0.3747,0.3763,0.3759,0.3811,0.3797,0.3798,0.3801,0.382,0.3824,0.3827,0.3779,0.3779,0.3779,0,0,0.3547,0.356,0.3583,0.3597,0.3618,0.3627,0.3633,0.3655,0.3663,0.3693,0.3696,0.3716,0.3756,0.3772,0.3786,0.3818,0.3821,0.3826,0.3839,0.3857,0.3861,0.3864,0.3876,0.3881,0.3829,0.3829,0.3829,0,0.3556,0.3587,0.3594,0.3617,0.363,0.3633,0.3657,0.3671,0.3699,0.3709,0.3703,0.3753,0.3769,0.3805,0.3813,0.3824,0.3831,0.3823,0.3859,0.3863,0.3866,0.3878,0.3882,0.3829,0.3829,0.3829,0.3829,0,0.3597,0.3619,0.3635,0.366,0.3675,0.3698,0.371,0.3725,0.3729,0.374,0.377,0.3789,0.3816,0.3825,0.383,0.3862,0.3859,0.3856,0.3848,0.387,0.3882,0.3886,0.383,0.383,0.3829,0.3829,0,0,0.3629,0.3657,0.3663,0.3674,0.3697,0.3715,0.3738,0.3762,0.3775,0.3794,0.3815,0.3848,0.3845,0.3861,0.3868,0.3884,0.3909,0.3879,0.388,0.3885,0.3947,0.395,0.3955,0.391,0.3911,0.3912,0.3946,0,0.3659,0.37,0.3707,0.3743,0.3763,0.3766,0.3786,0.3803,0.3814,0.3833,0.3845,0.3869,0.3863,0.3872,0.3889,0.3903,0.3922,0.39,0.3932,0.3932,0.3926,0.3961,0.3963,0.3994,0.395,0.3951,0.3951,0,0.3701,0.3719,0.3756,0.3776,0.3785,0.3803,0.3826,0.3844,0.3864,0.3871,0.3887,0.3892,0.3918,0.3907,0.3943,0.3928,0.3942,0.395,0.3952,0.3956,0.3944,0.3967,0.4004,0.4009,0.3958,0.3958,0.3957,0,0.3721,0.3755,0.3782,0.3791,0.3815,0.3828,0.3839,0.3858,0.3872,0.3892,0.3901,0.3925,0.3938,0.3957,0.3968,0.3959,0.4004,0.3994,0.4011,0.4011,0.4022,0.4021,0.4063,0.4028,0.4028,0.4028,0.4028,0,0.3754,0.3778,0.3791,0.3807,0.3834,0.3842,0.3868,0.3879,0.3895,0.3915,0.3919,0.3938,0.3951,0.3972,0.3982,0.4011,0.4017,0.4023,0.4026,0.4024,0.4023,0.4033,0.4032,0.403,0.4029,0.4029,0.4029,0,0.3782,0.3791,0.3821,0.384,0.3846,0.3864,0.3882,0.3899,0.3909,0.3934,0.394,0.3956,0.3981,0.3994,0.4025,0.4031,0.4064,0.4065,0.4057,0.4059,0.4075,0.4074,0.4126,0.4133,0.4093,0.4094,0.4094,0,0.3803,0.3821,0.3842,0.3854,0.3865,0.3885,0.3899,0.3908,0.3923,0.3946,0.3961,0.3985,0.4005,0.4045,0.4061,0.4085,0.4087,0.4103,0.4091,0.4088,0.4088,0.4087,0.409,0.4106,0.4106,0.4107,0.4107,0,0.384,0.3844,0.3863,0.3884,0.39,0.3917,0.3934,0.3944,0.3956,0.3973,0.3997,0.4013,0.4044,0.4069,0.4094,0.4107,0.411,0.4111,0.4116,0.4115,0.411,0.4113,0.4064,0.411,0.4109,0.4109,0.4109,0.4109,0.3866,0.3882,0.3899,0.392,0.3933,0.3949,0.3965,0.3976,0.3997,0.4022,0.4026,0.4052,0.4072,0.4106,0.4119,0.4141,0.4138,0.4145,0.4147,0.4149,0.415,0.4105,0.4145,0.4145,0.4145,0.4145,0.4145,0,0.3904,0.3915,0.3934,0.3957,0.3973,0.3972,0.3991,0.4006,0.4028,0.4045,0.4065,0.4093,0.4117,0.4134,0.4158,0.4173,0.4175,0.4179,0.4179,0.4182,0.4152,0.4145,0.4177,0.4177,0.4177,0.4177,0.4177,0.4177,0.3926,0.3952,0.3958,0.3991,0.4002,0.4027,0.4038,0.4052,0.4066,0.4097,0.4117,0.4127,0.4144,0.417,0.4192,0.4197,0.4206,0.4211,0.4215,0.4187,0.4184,0.4181,0.4174,0.4212,0.4212,0.4244,0.4244,0.4244]}]]